Location: El Águila
(10.4167°N, 66.7167°W)
Time: 05:03:17
(UTC+00:00)

ARIANE 2 DEBRIS - Pass Details

Date: 02 October 2022
Orbit: 498 x 35364 km, 7.2° (Epoch: 26 November)

Event Time Altitude Azimuth Distance (km) Brightness Sun altitude
Rises 22:47:11 0° 267° (W) 3,953 9.8 -8.3°
Reaches altitude 10° 22:50:41 10° 259° (W) 2,148 7.4 -9.2°
Maximum altitude 22:54:16 40° 187° (S) 746 3.6 -10.1°
Enters shadow 22:56:58 12° 115° (ESE) 1,649 4.7 -10.7°
